Location: Betz
(49.1556°N, 2.9558°E)
Time: 21:07:10
(UTC+00:00)

ARGOS - Pass Details

Date: 18 September 2019
Orbit: 821 x 834 km, 98.5° (Epoch: 19 October)

Event Time Altitude Azimuth Distance (km) Brightness Sun altitude
Exits shadow 19:12:30 12° 143° (SE) 2,261 4.9 -13.2°
Maximum altitude 19:17:17 54° 69° (ENE) 1,004 3.3 -13.9°
Drops below altitude 10° 19:22:31 10° 353° (N) 2,442 6.0 -14.7°
Sets 19:24:56 0° 349° (N) 3,382 6.8 -15.1°
